STARLINK-34175, 64169

Orbit data source: Space-Track

STARLINK-34175, 64169 is a payload satellite owned by SpaceX/Seattle (US) in SSO that was launched on Tue, 27 May 2025 UTC via an FALCON 9 launch vehicle from the Air Force Western Test Range (AFWTR). Payload-class satellites include a variety of spacecraft equipped with specific instruments for various scientific and technological missions. These include communications satellites like Starlink; space stations such as the ISS; scientific satellites like the Hubble; Earth observation satellites from companies like Planet Labs, Umbra, and HawkEye 360; GPS; miniature CubeSats for education and research; and military/defense satellites.

Loading next visibility...
Identifier
64169, 2025-112Z
Orbit
SSO
Country
Flag of USUS
Related business
Manufacturer
SpaceX/Seattle
Mission
Operational Commercial Communications
Bus & Motor
STARLINK V2MO, Unknown motor
Mass
575 kg wet, ~530 kg dry
Launch date (UTC)
2025-05-27 (1 year ago)
Launch vehicle
FALCON 9
Launch site
Air Force Western Test Range (AFWTR)
Object type
Payload
Rocket body
Debris
Shape & HBR
Box + 2 Pan, 17.7 m
Radar Cross Section
36.964 m², Large (>1 m²)

Expand to show TLE details & history
Last TLE update: 10 hours ago

TLE from 10 hours ago
0 STARLINK-34175
1 64169U 25112Z   26145.37566700  .00003900  00000-0  27418-3 0  9996
2 64169  97.4520 196.6830 0002481 137.5823 222.5596 15.05655976 54843
Epoch: 2026-05-25T09:00Z
TLE epoch observation values (Epoch: 2026-05-25T09:00:57.628Z)
Latitude
-0.00008°
Longitude
178.47854°
Altitude
553.829 km
Speed
7.584 km/s
True Right ascension
13h 06m 43s
True Declination
0° 00' 00"
Sunlit
Object was in full shadow at epoch
Visualization orbit readout
Latitude
Unknown
Longitude
Unknown
Altitude
Unknown
Speed
Unknown
Apparent Right ascension
Unknown
Apparent Declination
Unknown
Sunlit
N/A
Visualization observer readout
Local Sidereal Time
03:50:33
Azimuth
Unknown
Elevation
Unknown
Doppler factor
Unknown
Orbital elements
Apogee altitude
548.198 km
Perigee altitude
544.762 km
Semi-major axis
6,924.617 km
Eccentricity
0.00025
Inclination
97.452°
RAAN
196.683°
Arg. of periapsis
137.5823°
True anomaly
222.54038°
Mean anomaly
222.5596°
Eccentric anomaly
222.54999°
Mean motion
3.7666 °/min
Orbital period
95.58 mins
BSTAR
0.00027418
Loading maneuver chart data...
Computing Atmospheric mass density...
Loading historical data...
Loading historical data...
Loading historical data...
Loading historical data...
Loading historical data...
Loading historical data...
Loading historical data...

Documentation

Showing up to 5 results
|